Location: Austin
(30.3000°N, 97.7500°W)
Time: 00:33:39
(UTC-06:00)

Cosmos 1269 Rocket - Pass Details

Date: 04 November 2025
Orbit: 768 x 775 km, 74.1° (Epoch: 15 November)

Event Time Altitude Azimuth Distance (km) Brightness Sun altitude
Rises 19:22:07 0° 194° (SSW) 3,222 7.5 -22.2°
Reaches altitude 10° 19:24:29 10° 194° (SSW) 2,299 6.7 -22.7°
Maximum altitude 19:29:42 88° 107° (ESE) 773 3.9 -23.8°
Enters shadow 19:31:46 38° 17° (NNE) 1,155 4.7 -24.3°
